Volver al catálogo

DELTA 1 DEB

ActivoSSO
NORAD 42647·DEBRIS·🇺🇸 United States

Lanzado Jun 12, 1975 desde Vandenberg Space Force Base

Loading…

Próximos Pases (próximas 24 horas)

TLE

EnvejeciendoSource: Space-Track

Época: Sep 9, 2026, 03:44 UTC

1 42647U 75052MG  26252.15555699 -.00000005  00000-0  73618-4 0  9999
2 42647  99.7547  38.9398 0066144 100.1746 260.6847 13.32610810 94838

Sigue DELTA 1 DEB en tiempo real con AllMySat

Download on the App Store